Погода в Ключевске

Россия / Свердловская область     57°07′02″N   60°56′22″E
темп.,
°C
ветер,
м/с
пор.,
м/с
влажн.,
%
обл.,
%
осадки,
мм/ч
давл.,
гПа
погр.,
м
6 мая, чт
чт623:00+8з5127768 2.4 10001284
02:00+7з612777 0.0 10021024
05:00+5з6128036 0.0 1004955
08:00+5з71272100 0.0 10061280
11:00+8зсз71249100 0.1 10082147
14:00+10зсз71239100 0.1 10102039
17:00+10зсз7113999 0.1 10122004
20:00+8зсз412465 0.0 10141583
7 мая, пт
пт723:00+6з311560 0.0 1016379
02:00+4з310680 0.0 1018244
05:00+3зюз39775 0.0 1020191
08:00+9зюз4857100 0.0 1020401
11:00+15з454670 0.0 10191124
14:00+18зюз353953 0.0 10191935
17:00+19зюз35336 0.0 10182378
20:00+15зюз225087 0.0 101819
8 мая, сб
сб823:00+11зюз116718 0.0 101911
02:00+10ю117019 0.0 101910
05:00+9ююз1170100 0.0 101910
08:00+14юз1151100 0.0 1019169
11:00+18ююв1140100 0.0 1018864
14:00+21ююв113096 0.0 10172773
17:00+20с122977 0.0 10172470
20:00+16с484695 0.0 1018398
9 мая, вс
вс923:00+13с2256100 0.0 101833
02:00+11ссв2264100 0.0 101835
05:00+12ссв2366100 0.0 101982
08:00+14св3655100 0.0 1019364
11:00+18всв3540100 0.0 10191434
14:00+20всв353078 0.0 10182824
17:00+18вюв454429 0.0 10191096
20:00+16ссв245374 0.0 101980
10 мая, пн
пн1023:00+14юв1160100 0.0 102111
02:00+13св246495 0.0 102194
05:00+10всв22755 0.0 102236
08:00+15в12521 0.0 1023346
11:00+21всв11381 0.0 10231530
14:00+24ююз122960 0.0 10222653
17:00+22зюз433086 0.0 10212473
20:00+18з2649100 0.0 1021149